COSMOS 2411 (GLONASS) 1 28509U 04053B 24286.40463840 .00000063 00000-0 00000-0 0 9996 2 28509 63.8155 81.8674 0005749 164.9402 203.5921 2.13096652154061 COSMOS 2419 (GLONASS) 1 28915U 05050A 24289.15327389 -.00000031 00000-0 00000-0 0 9993 2 28915 65.8780 336.5664 0014744 326.1832 29.1117 2.13107989146360 COSMOS 2425 (GLONASS) 1 29670U 06062A 24287.35153459 -.00000001 00000-0 00000-0 0 9998 2 29670 64.6934 214.6637 0021863 354.3350 145.9280 2.13117118138545 COSMOS 2426 (GLONASS) 1 29671U 06062B 24289.40921028 .00000001 00000-0 00000-0 0 9991 2 29671 64.7006 214.8145 0021415 179.2389 14.8126 2.12963194138569 COSMOS 2424 (GLONASS) 1 29672U 06062C 24288.44299900 -.00000002 00000-0 00000-0 0 9994 2 29672 64.6970 214.6417 0019276 173.6421 186.3890 2.13122467138560 COSMOS 2433 (GLONASS) 1 32275U 07052A 24289.34915314 -.00000031 00000-0 00000+0 0 9992 2 32275 65.8865 336.3819 0005541 239.0781 120.9435 2.13103978132102 COSMOS 2432 (GLONASS) 1 32276U 07052B 24289.51996157 -.00000032 00000-0 00000-0 0 9998 2 32276 65.9016 336.4923 0010020 308.9171 127.9835 2.13103024132097 COSMOS 2434 (GLONASS) 1 32393U 07065A 24289.67758164 .00000004 00000-0 00000-0 0 9991 2 32393 64.3179 212.4946 0002163 63.9882 80.1383 2.13101216130787 COSMOS 2435 (GLONASS) 1 32394U 07065B 24288.86288688 -.00000000 00000-0 00000+0 0 9997 2 32394 64.3216 212.5176 0024764 356.7341 3.2594 2.13115034130738 COSMOS 2436 (GLONASS) 1 32395U 07065C 24289.93925632 .00000005 00000-0 00000-0 0 9999 2 32395 64.3264 212.5515 0016801 0.4165 119.3567 2.13099958130745 COSMOS 2442 (GLONASS) 1 33378U 08046A 24287.31021431 -.00000027 00000-0 00000-0 0 9990 2 33378 65.7814 335.4585 0019307 302.3580 56.6021 2.13107938124901 COSMOS 2443 (GLONASS) 1 33379U 08046B 24289.54258703 -.00000030 00000-0 00000+0 0 9995 2 33379 65.7914 335.4935 0014375 178.3462 183.3315 2.13098289124959 COSMOS 2444 (GLONASS) 1 33380U 08046C 24289.35325586 -.00000030 00000-0 00000+0 0 9990 2 33380 65.8000 335.5463 0020044 292.3432 70.1827 2.13112146124948 COSMOS 2447 (GLONASS) 1 33466U 08067A 24287.85543491 .00000077 00000-0 00000-0 0 9999 2 33466 64.4692 90.4285 0006144 237.8150 134.9510 2.13107598122941 COSMOS 2449 (GLONASS) 1 33467U 08067B 24286.95610098 .00000080 00000-0 00000-0 0 9992 2 33467 64.4572 90.3753 0031583 234.5548 125.1817 2.13097282122915 COSMOS 2448 (GLONASS) 1 33468U 08067C 24283.46223620 .00000065 00000-0 00000-0 0 9990 2 33468 64.4615 90.5144 0001491 195.1223 164.9014 2.13116089122914 COSMOS 2456 (GLONASS) 1 36111U 09070A 24289.33750788 .00000067 00000-0 00000-0 0 9997 2 36111 64.6709 91.8347 0001347 331.2279 66.2977 2.13103663115436 COSMOS 2457 (GLONASS) 1 36112U 09070B 24289.56764771 .00000064 00000-0 00000-0 0 9997 2 36112 64.6553 91.6826 0006272 144.7141 202.3929 2.13101105115430 COSMOS 2458 (GLONASS) 1 36113U 09070C 24287.82748453 .00000080 00000-0 00000-0 0 9992 2 36113 64.6602 91.7856 0003567 313.4888 50.6744 2.13082323115436 COSMOS 2459 (GLONASS) 1 36400U 10007A 24287.59656101 -.00000027 00000-0 00000+0 0 9996 2 36400 65.7607 335.1874 0025580 341.1917 22.0533 2.13116636113787 COSMOS 2461 (GLONASS) 1 36401U 10007B 24289.80745229 -.00000031 00000-0 00000-0 0 9999 2 36401 65.7549 335.0745 0019364 356.8358 215.9779 2.13106391113832 COSMOS 2460 (GLONASS) 1 36402U 10007C 24289.70227069 -.00000030 00000-0 00000-0 0 9995 2 36402 65.7403 335.0146 0002584 241.0448 202.7785 2.13106125113744 COSMOS 2466 (GLONASS) 1 37137U 10041A 24287.35138333 -.00000001 00000-0 00000+0 0 9990 2 37137 63.8948 211.0619 0016923 174.0380 316.4512 2.13112855109869 COSMOS 2465 (GLONASS) 1 37138U 10041B 24288.19623272 -.00000002 00000-0 00000-0 0 9997 2 37138 63.9106 211.1791 0040222 178.6847 267.9458 2.13098174109840 COSMOS 2464 (GLONASS) 1 37139U 10041C 24289.46425858 .00000003 00000-0 00000-0 0 9999 2 37139 63.9173 211.1563 0032581 10.4047 181.0949 2.13099879109895 COSMOS 2471 (GLONASS) 1 37372U 11009A 24289.81400553 -.00000031 00000-0 00000-0 0 9999 2 37372 65.7281 335.0009 0009200 323.0476 233.6369 2.12911328106108 COSMOS 2474 (GLONASS) 1 37829U 11055A 24289.69527512 .00000067 00000-0 00000-0 0 9996 2 37829 64.9618 93.4989 0010231 236.5174 300.3758 2.13101347101462 COSMOS 2476 (GLONASS) 1 37867U 11064A 24289.43608612 .00000070 00000-0 00000-0 0 9995 2 37867 64.9416 93.5109 0022006 230.3492 154.6704 2.13101514100773 COSMOS 2477 (GLONASS) 1 37868U 11064B 24289.73810398 .00000067 00000-0 00000-0 0 9991 2 37868 64.9490 93.5744 0019159 230.4722 204.9659 2.13102968100775 COSMOS 2475 (GLONASS) 1 37869U 11064C 24289.74624633 .00000067 00000-0 00000-0 0 9998 2 37869 64.9557 93.5901 0023459 247.5799 151.9819 2.13101699100786 COSMOS 2478 (GLONASS) 1 37938U 11071A 24288.19840920 -.00000027 00000-0 00000-0 0 9997 2 37938 65.7812 335.4125 0018057 221.9186 138.2461 2.13015292100139